• în România
  • Lista ţărilor
  • Pe 7 zile
  • Temperatura apei
  • Hartă satelitară
  • Meteo pe hartă
  • Widget-uri
  • user-avatar
    Intrare

    Meteo pe oră la Ertil

    Astăzi, 21 Mai, Luni

    Timp Temperatura Precipitaţii Vânt Presiune Umiditate
    00:00 +15°C° 0,9 mm 4 m/s 747 mmHg 94%
    01:00 +15°C° 0,6 mm 4 m/s 747 mmHg 94%
    02:00 +14°C° 0,6 mm 4 m/s 748 mmHg 95%
    03:00 +14°C° 0 mm 4 m/s 748 mmHg 96%
    04:00 +14°C° 0,5 mm 5 m/s 748 mmHg 95%
    05:00 +14°C° 0,5 mm 5 m/s 748 mmHg 95%
    06:00 +13°C° 0,5 mm 5 m/s 749 mmHg 94%
    07:00 +14°C° 0,5 mm 5 m/s 749 mmHg 94%
    08:00 +14°C° 0,5 mm 5 m/s 749 mmHg 93%
    09:00 +14°C° 0 mm 5 m/s 749 mmHg 93%
    10:00 +15°C° 0,5 mm 5 m/s 750 mmHg 92%
    11:00 +15°C° 0,5 mm 5 m/s 750 mmHg 91%
    12:00 +16°C° 0,5 mm 6 m/s 750 mmHg 90%
    13:00 +16°C° 0,3 mm 6 m/s 750 mmHg 89%
    14:00 +16°C° 0,3 mm 6 m/s 750 mmHg 88%
    15:00 +16°C° 0,3 mm 7 m/s 750 mmHg 88%
    16:00 +16°C° 0,2 mm 6 m/s 750 mmHg 89%
    17:00 +16°C° 0,2 mm 6 m/s 750 mmHg 89%
    18:00 +15°C° 0,2 mm 6 m/s 750 mmHg 90%
    19:00 +15°C° 0 mm 6 m/s 751 mmHg 91%
    20:00 +15°C° 0 mm 6 m/s 751 mmHg 91%
    21:00 +15°C° 0 mm 6 m/s 751 mmHg 92%
    22:00 +15°C° 0 mm 6 m/s 751 mmHg 92%
    23:00 +15°C° 0 mm 6 m/s 752 mmHg 92%

    Mâine, 22 Mai, Marţi

    Timp Temperatura Precipitaţii Vânt Presiune Umiditate
    00:00 +14°C° 0 mm 6 m/s 752 mmHg 92%
    01:00 +14°C° 0,6 mm 6 m/s 752 mmHg 92%
    02:00 +14°C° 0,6 mm 5 m/s 752 mmHg 92%
    03:00 +13°C° 0,6 mm 5 m/s 752 mmHg 93%
    04:00 +13°C° 0,5 mm 5 m/s 752 mmHg 93%
    05:00 +13°C° 0,5 mm 5 m/s 753 mmHg 92%
    06:00 +13°C° 0,5 mm 5 m/s 753 mmHg 92%
    07:00 +14°C° 0 mm 5 m/s 753 mmHg 89%
    08:00 +15°C° 0 mm 5 m/s 753 mmHg 86%
    09:00 +16°C° 0 mm 5 m/s 754 mmHg 83%
    10:00 +17°C° 0 mm 5 m/s 754 mmHg 80%
    11:00 +19°C° 0 mm 5 m/s 754 mmHg 78%
    12:00 +20°C° 0 mm 5 m/s 754 mmHg 76%
    13:00 +21°C° 0 mm 5 m/s 754 mmHg 75%
    14:00 +22°C° 0 mm 5 m/s 753 mmHg 74%
    15:00 +23°C° 0 mm 4 m/s 753 mmHg 73%
    16:00 +23°C° 0,8 mm 4 m/s 753 mmHg 76%
    17:00 +22°C° 0,8 mm 4 m/s 753 mmHg 78%
    18:00 +22°C° 0,8 mm 3 m/s 753 mmHg 81%
    19:00 +21°C° 0,8 mm 3 m/s 753 mmHg 83%
    20:00 +20°C° 0,8 mm 3 m/s 753 mmHg 86%
    21:00 +19°C° 0,8 mm 3 m/s 753 mmHg 89%
    22:00 +18°C° 0,3 mm 4 m/s 753 mmHg 90%
    23:00 +18°C° 0,3 mm 4 m/s 753 mmHg 90%

    Poimâine, 23 Mai, Miercuri

    Timp Temperatura Precipitaţii Vânt Presiune Umiditate
    00:00 +17°C° 0,3 mm 4 m/s 754 mmHg 91%
    01:00 +17°C° 0,2 mm 4 m/s 753 mmHg 91%
    02:00 +15°C° 0,2 mm 4 m/s 753 mmHg 92%
    03:00 +15°C° 0,2 mm 4 m/s 753 mmHg 92%
    04:00 +16°C° 0,2 mm 3 m/s 753 mmHg 91%
    05:00 +16°C° 0,2 mm 3 m/s 753 mmHg 90%
    06:00 +16°C° 0,2 mm 3 m/s 753 mmHg 89%
    07:00 +17°C° 0,1 mm 3 m/s 753 mmHg 85%
    08:00 +18°C° 0,1 mm 3 m/s 753 mmHg 81%
    09:00 +19°C° 0,1 mm 3 m/s 753 mmHg 76%
    10:00 +20°C° 0 mm 3 m/s 753 mmHg 73%
    11:00 +22°C° 0 mm 3 m/s 753 mmHg 70%
    12:00 +24°C° 0 mm 3 m/s 753 mmHg 67%
    13:00 +24°C° 0 mm 3 m/s 753 mmHg 67%
    14:00 +25°C° 0 mm 3 m/s 753 mmHg 66%
    15:00 +26°C° 0 mm 3 m/s 753 mmHg 66%
    16:00 +25°C° 0 mm 3 m/s 752 mmHg 69%
    17:00 +25°C° 0 mm 3 m/s 752 mmHg 73%
    18:00 +25°C° 0 mm 3 m/s 751 mmHg 76%
    19:00 +22°C° 0 mm 3 m/s 751 mmHg 79%
    20:00 +21°C° 0 mm 2 m/s 751 mmHg 83%
    21:00 +20°C° 0 mm 2 m/s 751 mmHg 86%
    22:00 +19°C° 0 mm 2 m/s 751 mmHg 85%
    23:00 +19°C° 0 mm 2 m/s 751 mmHg 84%

    24 Mai, Joi

    Timp Temperatura Precipitaţii Vânt Presiune Umiditate
    00:00 +18°C° 0 mm 2 m/s 751 mmHg 84%
    01:00 +19°C° 0,3 mm 1 m/s 751 mmHg 85%
    02:00 +18°C° 0,3 mm 1 m/s 750 mmHg 86%
    03:00 +18°C° 0,3 mm 1 m/s 750 mmHg 87%
    04:00 +18°C° 0,3 mm 1 m/s 750 mmHg 86%
    05:00 +19°C° 0,3 mm 1 m/s 750 mmHg 85%
    06:00 +19°C° 0,3 mm 1 m/s 750 mmHg 84%
    07:00 +20°C° 0,1 mm 1 m/s 750 mmHg 83%
    08:00 +20°C° 0,1 mm 2 m/s 750 mmHg 82%
    09:00 +20°C° 0,1 mm 2 m/s 750 mmHg 81%
    10:00 +21°C° 0 mm 2 m/s 749 mmHg 78%
    11:00 +23°C° 0 mm 2 m/s 749 mmHg 75%
    12:00 +24°C° 0 mm 2 m/s 749 mmHg 71%
    13:00 +24°C° 0,1 mm 2 m/s 749 mmHg 71%
    14:00 +24°C° 0,1 mm 2 m/s 749 mmHg 70%
    15:00 +24°C° 0,1 mm 2 m/s 748 mmHg 70%
    16:00 +24°C° 0,3 mm 2 m/s 748 mmHg 71%
    17:00 +24°C° 0,3 mm 2 m/s 748 mmHg 73%
    18:00 +25°C° 0,3 mm 1 m/s 748 mmHg 74%
    19:00 +23°C° 0,4 mm 1 m/s 748 mmHg 76%
    20:00 +22°C° 0,4 mm 1 m/s 748 mmHg 78%
    21:00 +21°C° 0,4 mm 1 m/s 748 mmHg 81%
    22:00 +20°C° 0,5 mm 1 m/s 747 mmHg 83%
    23:00 +18°C° 0,5 mm 2 m/s 747 mmHg 85%

    25 Mai, Vineri

    Timp Temperatura Precipitaţii Vânt Presiune Umiditate
    00:00 +18°C° 0,5 mm 2 m/s 747 mmHg 88%
    01:00 +17°C° 0 mm 3 m/s 747 mmHg 89%
    02:00 +15°C° 0 mm 4 m/s 747 mmHg 90%
    03:00 +15°C° 0 mm 5 m/s 747 mmHg 92%
    04:00 +14°C° 0 mm 5 m/s 748 mmHg 91%
    05:00 +14°C° 0 mm 6 m/s 748 mmHg 91%
    06:00 +12°C° 0 mm 7 m/s 748 mmHg 91%
    07:00 +12°C° 0 mm 7 m/s 749 mmHg 88%
    08:00 +12°C° 0 mm 7 m/s 749 mmHg 86%
    09:00 +12°C° 0 mm 7 m/s 749 mmHg 83%
    10:00 +14°C° 0 mm 7 m/s 750 mmHg 76%
    11:00 +14°C° 0 mm 7 m/s 750 mmHg 70%
    12:00 +15°C° 0 mm 8 m/s 750 mmHg 63%
    13:00 +15°C° 0 mm 8 m/s 750 mmHg 61%
    14:00 +15°C° 0 mm 8 m/s 750 mmHg 60%
    15:00 +15°C° 0 mm 8 m/s 750 mmHg 58%
    16:00 +15°C° 0 mm 8 m/s 750 mmHg 59%
    17:00 +14°C° 0 mm 7 m/s 751 mmHg 60%
    18:00 +12°C° 0 mm 7 m/s 751 mmHg 61%
    19:00 +11°C° 0 mm 6 m/s 751 mmHg 62%
    20:00 +9°C° 0 mm 6 m/s 752 mmHg 62%
    21:00 +8°C° 0 mm 6 m/s 752 mmHg 63%
    22:00 +7°C° 0 mm 6 m/s 753 mmHg 62%
    23:00 +7°C° 0 mm 6 m/s 753 mmHg 62%

    26 Mai, Sâmbătă

    Timp Temperatura Precipitaţii Vânt Presiune Umiditate
    00:00 +5°C° 0 mm 6 m/s 753 mmHg 61%
    01:00 +5°C° 0 mm 5 m/s 754 mmHg 62%
    02:00 +5°C° 0 mm 5 m/s 754 mmHg 63%
    03:00 +5°C° 0 mm 5 m/s 754 mmHg 64%
    04:00 +4°C° 0 mm 6 m/s 755 mmHg 65%
    05:00 +4°C° 0 mm 6 m/s 755 mmHg 66%
    06:00 +4°C° 0 mm 6 m/s 755 mmHg 67%
    07:00 +5°C° 0 mm 6 m/s 756 mmHg 62%
    08:00 +8°C° 0 mm 7 m/s 756 mmHg 58%
    09:00 +9°C° 0 mm 8 m/s 756 mmHg 53%
    10:00 +10°C° 0 mm 8 m/s 756 mmHg 52%
    11:00 +11°C° 0 mm 8 m/s 756 mmHg 51%
    12:00 +12°C° 0 mm 8 m/s 756 mmHg 50%
    13:00 +12°C° 0 mm 8 m/s 756 mmHg 50%
    14:00 +13°C° 0 mm 8 m/s 756 mmHg 50%
    15:00 +13°C° 0 mm 8 m/s 756 mmHg 50%
    16:00 +14°C° 0 mm 7 m/s 756 mmHg 54%
    17:00 +14°C° 0 mm 6 m/s 756 mmHg 58%
    18:00 +14°C° 0 mm 4 m/s 756 mmHg 62%
    19:00 +12°C° 0 mm 4 m/s 757 mmHg 65%
    20:00 +10°C° 0 mm 3 m/s 757 mmHg 69%
    21:00 +9°C° 0 mm 3 m/s 757 mmHg 73%
    22:00 +8°C° 0 mm 3 m/s 757 mmHg 73%
    23:00 +8°C° 0 mm 2 m/s 757 mmHg 73%
    Arată mai mult